GAOFEN-4

Last updated on Thu Oct 30 2025 00:02:31 GMT+0000 (Coordinated Universal Time)

1 41194U 15083A 25302.04489227 -.00000325 00000+0 00000+0 0 9993 2 41194 0.0542 65.1939 0003905 121.2097 333.1165 1.00272569 36210
UTC large
Height (km)
Speed (km/s)
/
Latitude / Longitude
Inclination (degrees)
Orbital Period (minutes)
Azimuth
Elevation
Range (km)
Doppler Factor

Next 0 passes for location: London (51.5072 / 0.1276)

Sorry there are no passes over London.